Home   Weather   Vilnius   Past weeks

Flag for Lithuania Past Weather in Vilnius, Lithuania — Yesterday and Last 2 Weeks

Now
43 °F

Overcast.


Feels Like: 38 °F
Forecast: 32 / 49 °F
Wind: 8 mph from Southwest

Location: Vilnius Airport

Current Time: Apr 29, 2017 at 10:40:12 pm

Latest Report: Apr 29, 2017 at 9:50 pm


Visibility: N/A

Pressure: 29.98 "Hg

Humidity: 76%

Dew Point: 36 °F

Location of VilniusLocation

Past Weather in Vilnius — Graph

°F

Vilnius Temperature Yesterday

Maximum temperature yesterday: 45 °F (at 12:20 pm)
Minimum temperature yesterday: 34 °F (at 6:20 am)
Average temperature yesterday: 39 °F

High & Low Weather Summary for the Past Weeks

 TemperatureHumidityPressure
High57 °F (Apr 25, 5:20 pm)100% (Apr 16, 1:20 am)30.45 "Hg (Apr 16, 1:20 am)
Low21 °F (Apr 18, 5:20 am)26% (Apr 20, 3:55 pm)29.42 "Hg (Apr 22, 5:50 am)
Average37 °F71%29.89 "Hg
* Reported Apr 14 8:22 pm — Apr 29 8:50 pm, Vilnius, Weather by CustomWeather, © 2017

Note: Actual official high and low records may vary slightly from our data, if they occured in-between our weather recording intervals... More about our weather records

Advertising

Vilnius Weather History for the Previous 24 Hours

Scroll right to see more
 ConditionsComfort  
Time TempWeatherWind HumidityBarometerVisibility
8:50 pm
Sat, Apr 29
43 °FPartly cloudy.9 mph76%29.95 "HgN/A
8:20 pm43 °FOvercast.12 mph81%29.95 "HgN/A
7:50 pm43 °FOvercast.9 mph81%29.92 "HgN/A
7:20 pm43 °FOvercast.9 mph81%29.92 "HgN/A
6:50 pm43 °FOvercast.8 mph81%29.89 "HgN/A
6:20 pm45 °FOvercast.13 mph76%29.89 "HgN/A
5:50 pm45 °FPartly sunny.10 mph76%29.89 "HgN/A
5:20 pm45 °FOvercast.10 mph76%29.89 "HgN/A
4:50 pm43 °FOvercast.13 mph81%29.89 "HgN/A
4:20 pm43 °FScattered showers. Overcast.13 mph87%29.86 "HgN/A
3:50 pm43 °FScattered showers. Partly sunny.14 mph87%29.86 "HgN/A
3:29 pm43 °FScattered showers. Partly sunny.14 mph81%29.83 "HgN/A
2:50 pm43 °FOvercast.16 mph81%29.83 "HgN/A
2:20 pm43 °FPartly sunny.18 mph87%29.80 "HgN/A
1:50 pm43 °FLow clouds.18 mph87%29.80 "HgN/A
1:20 pm43 °FLow clouds.17 mph87%29.77 "HgN/A
12:50 pm45 °FLow clouds.17 mph87%29.74 "HgN/A
12:20 pm45 °FLow clouds.16 mph93%29.74 "HgN/A
11:50 am43 °FLow clouds.13 mph100%29.71 "HgN/A
11:20 am43 °FLow clouds.10 mph100%29.71 "HgN/A
10:50 am43 °FLight rain. Low clouds.10 mph100%29.71 "HgN/A
10:20 am43 °FDrizzle. Low clouds.10 mph100%29.68 "HgN/A
9:50 am43 °FDrizzle. Low clouds.12 mph100%29.68 "HgN/A
9:20 am43 °FLow clouds.9 mph100%29.68 "HgN/A
8:50 am43 °FMostly cloudy.6 mph93%29.65 "HgN/A
8:20 am43 °FMostly cloudy.6 mph100%29.65 "HgN/A
7:50 am41 °FMostly cloudy.5 mph100%29.65 "HgN/A
7:20 am41 °FCloudy.3 mph100%29.65 "HgN/A
6:50 am41 °FSprinkles. Mostly cloudy.5 mph93%29.65 "HgN/A
6:20 am41 °FLight rain. Low clouds.5 mph93%29.68 "Hg5 mi
5:50 am39 °FLight rain. Fog.6 mph100%29.68 "Hg2 mi
5:20 am39 °FLight rain. Fog.7 mph100%29.68 "Hg3 mi
4:50 am39 °FLight rain. Low clouds.7 mph100%29.68 "HgN/A
4:20 am39 °FLow clouds.6 mph100%29.71 "HgN/A
3:50 am39 °FLight rain. Low clouds.6 mph100%29.71 "HgN/A
3:20 am39 °FLow clouds.6 mph100%29.74 "HgN/A
2:50 am39 °FLow clouds.8 mph100%29.71 "HgN/A
2:20 am39 °FLight rain. Low clouds.6 mph100%29.74 "HgN/A
1:50 am39 °FSprinkles. Low clouds.7 mph100%29.74 "HgN/A
1:20 am39 °FSprinkles. Low clouds.7 mph100%29.74 "HgN/A
12:50 am39 °FSprinkles. Low clouds.9 mph93%29.74 "HgN/A
12:27 am39 °FSprinkles. Mostly cloudy.8 mph93%29.77 "HgN/A
11:50 pm
Fri, Apr 28
39 °FLight rain. Low clouds.7 mph93%29.80 "HgN/A
11:20 pm39 °FLight rain. Low clouds.8 mph93%29.80 "HgN/A
10:50 pm39 °FLight rain. Low clouds.9 mph93%29.80 "HgN/A
10:20 pm39 °FLight rain. Low clouds.10 mph93%29.80 "HgN/A
Weather by CustomWeather, © 2017

See weather overviewHow to use our weather pages